Home   Weather   Cartagena   Past weeks
Flag for Colombia

Past Weather in Cartagena, Colombia — Yesterday and Last 2 Weeks

Now
86 °F

Scattered clouds.


Feels Like: 97 °F
Forecast: N/A
Wind: 10 mph from Northeast

Location: Cartagena / Rafael Nunez

Current Time: Jul 22, 2019 at 6:47:15 pm

Latest Report: Jul 22, 2019 at 6:00 pm


Visibility: N/A

Pressure: 29.78 "Hg

Humidity: 75%

Dew Point: 77 °F

Location of CartagenaLocation

Past Weather in Cartagena — Graph

°F

Cartagena Temperature Yesterday

Maximum temperature yesterday: 91 °F (at 11:00 am)
Minimum temperature yesterday: 79 °F (at 4:00 am)
Average temperature yesterday: 84 °F

High & Low Weather Summary for the Past Weeks

 TemperatureHumidityPressure
High95 °F (Jul 10, 12:00 pm)100% (Jul 8, 7:00 pm)29.96 "Hg (Jul 8, 7:00 pm)
Low77 °F (Jul 12, 4:00 am)53% (Jul 10, 12:00 pm)29.67 "Hg (Jul 20, 5:00 pm)
Average84 °F82%29.80 "Hg
* Reported Jul 7 5:00 pm — Jul 22 5:00 pm, Cartagena. Weather by CustomWeather, © 2019

Note: Actual official high and low records may vary slightly from our data, if they occured in-between our weather recording intervals... More about our weather records

Advertising

Cartagena Weather History for the Previous 24 Hours

Scroll right to see more
 ConditionsComfort  
Time TempWeatherWind HumidityBarometerVisibility
5:00 pm
Mon, Jul 22
88 °FScattered clouds.13 mph70%29.76 "HgN/A
4:00 pm88 °FPartly sunny.9 mph75%29.76 "Hg5 mi
3:00 pm88 °FThunderstorms. Partly sunny.12 mph79%29.75 "Hg5 mi
2:00 pm90 °FScattered clouds.13 mph71%29.76 "HgN/A
1:00 pm91 °FPartly sunny.8 mph67%29.77 "HgN/A
12:00 pm91 °FScattered clouds.9 mph67%29.79 "HgN/A
11:00 am90 °FScattered clouds.10 mph71%29.81 "HgN/A
10:00 am86 °FPartly sunny.12 mph79%29.81 "HgN/A
9:00 am88 °FPartly sunny.8 mph75%29.81 "HgN/A
8:00 am84 °FBroken clouds.8 mph89%29.79 "Hg6 mi
7:00 am81 °FBroken clouds.3 mph89%29.78 "Hg5 mi
6:00 am79 °FSunny.5 mph94%29.75 "Hg10 mi
5:00 am79 °FClear.5 mph94%29.75 "Hg10 mi
4:00 am81 °FClear.2 mph89%29.75 "Hg10 mi
3:00 am79 °FClear.2 mph94%29.76 "Hg10 mi
2:00 am79 °FClear.2 mph94%29.76 "Hg10 mi
1:00 am81 °FClear.6 mph84%29.77 "Hg10 mi
12:00 am81 °FClear.5 mph89%29.79 "Hg10 mi
11:00 pm
Sun, Jul 21
81 °FClear.5 mph89%29.80 "Hg10 mi
10:00 pm81 °FClear.3 mph89%29.79 "Hg10 mi
9:00 pm82 °FClear.3 mph89%29.78 "Hg10 mi
8:00 pm82 °FPassing clouds.9 mph89%29.74 "HgN/A
7:00 pm84 °FPassing clouds.9 mph79%29.72 "HgN/A
6:00 pm86 °FPassing clouds.9 mph75%29.71 "HgN/A
Weather by CustomWeather, © 2019

See weather overview